{"data":{"norad_id":61851,"epoch":"2026-05-25T00:38:46.605984Z","epoch_age_seconds":83399,"freshness":"FRESH","line1":"1 61851U 24202G   26145.02692831  .00001300  00000+0  56777-4 0  9999","line2":"2 61851  43.0008 155.5256 0001457 258.7773 101.2915 15.27577083 87136","mean_motion":15.27577083,"eccentricity":0.0001457,"inclination_deg":43.0008,"raan_deg":155.5256,"arg_perigee_deg":258.7773,"mean_anomaly_deg":101.2915,"bstar":5.6777e-5,"rev_number":8713,"period_min":94.266928721658,"perigee_km":482.05815451412,"apogee_km":484.05750668776,"semimajor_km":6861.1948306009,"source":"CELESTRAK","updated_at":"2026-05-25T13:38:19.450676Z"}}